Simultaneous Nadir Overpasses (SNOs) Predictions

Prediction of SNOs between METOP-B and TERRA Satellite Orbit:

Table of predicted SNOs for the next 14.0 days since TLE Epoch: 10/2/2021
Index Date (METOP-B) Time (METOP-B) Lat,Lon (METOP-B) SZA (METOP-B ) Date (TERRA) Time (TERRA) Lat,Lon (TERRA) SZA (TERRA ) Distance(km) Time Diff (sec)
1 10/04/2021 07:31:47 -81.26, -68.28 91.49 10/04/2021 07:32:02 -81.26, -68.37 91.49 1.52 15
2 10/04/2021 08:22:27 81.26, 99.23 88.55 10/04/2021 08:21:28 81.26, 99.35 88.54 1.87 59
3 10/07/2021 03:06:08 -81.26, -1.87 90.39 10/07/2021 03:06:13 -81.25, -2.02 90.41 2.50 5
4 10/07/2021 03:56:48 81.26, 165.60 89.65 10/07/2021 03:55:39 81.25, 165.67 89.62 1.28 69
5 10/09/2021 21:49:50 81.24,-103.32 90.62 10/09/2021 21:50:58 81.24,-103.33 90.65 0.14 68
6 10/09/2021 22:40:30 -81.26, 64.52 89.31 10/09/2021 22:40:24 -81.27, 64.66 89.29 2.65 6
7 10/12/2021 17:24:11 81.25, -36.61 91.73 10/12/2021 17:25:09 81.25, -36.74 91.75 2.16 58
8 10/12/2021 18:14:52 -81.25, 130.88 88.24 10/12/2021 18:14:36 -81.25, 130.90 88.25 0.45 16
9 10/15/2021 12:58:33 81.24, 29.31 92.73 10/15/2021 12:59:20 81.24, 29.43 92.76 2.15 47



Historial Predications of SNOs between METOP-B and TERRA
